El Paso, TX

6:40 PM MST on January 22, 2017 (GMT -0700)
El Paso International

Weather History for KELP - March, 2012

Change the Weather History Date:

Wednesday, March 28, 2012

  Actual Average Record
Temperature  
Mean Temperature 68 °F 59 °F  
Max Temperature 86 °F 73 °F 88 °F (1967)
Min Temperature 49 °F 45 °F 27 °F (1955)
Degree Days  
Heating Degree Days 0 6  
Month to date heating degree days 233 253  
Since 1 July heating degree days 2256 2356  
Cooling Degree Days 3 1  
Month to date cooling degree days 22 3  
Year to date cooling degree days 22 3  
Growing Degree Days 16 (Base 50)    
Moisture  
Dew Point 17 °F    
Average Humidity 17    
Maximum Humidity 26    
Minimum Humidity 7    
Precipitation  
Precipitation 0.00 in 0.01 in 0.25 in (1951)
Month to date precipitation 0.08 0.24  
Year to date precipitation 0.76 1.10  
Snow  
Snow 0.00 in - - ()
Month to date snowfall T  
Since 1 July snowfall 3.2  
Snow Depth 0.00 in    
Sea Level Pressure  
Sea Level Pressure 29.83 in    
Wind  
Wind Speed 7 mph (WSW)    
Max Wind Speed 22 mph    
Max Gust Speed 28 mph    
Visibility 10 miles    
Events      
T = Trace of Precipitation, MM = Missing Value Source: NWS Daily Summary

Daily Weather History Graph

Daily Weather History Graph

Search for Another Location

Airport or City:

Trip Planner

Search our weather history database for the weather conditions in past years. The results will help you decide how hot, cold, wet, or windy it might be!

Date:

Astronomy

Mar. 28, 2012 Rise Set
Actual Time 6:58 AM MDT 7:22 PM MDT
Civil Twilight 6:33 AM MDT 7:47 PM MDT
Nautical Twilight 6:05 AM MDT 8:16 PM MDT
Astronomical Twilight 5:36 AM MDT 8:45 PM MDT
Moon 10:36 AM MDT (3/28) 12:09 AM MDT (3/28)
Length of Visible Light 13h 13m
Length of Day
12h 24m
Waxing Crescent, 31% of the Moon is Illuminated
Mar 28
Waxing Crescent
Mar 30
First Quarter
Apr 6
Full
Apr 13
Last Quarter
Apr 21
New

Hourly Weather History & Observations

Time (MDT) Temp. Dew Point Humidity Pressure Visibility Wind Dir Wind Speed Gust Speed Precip Events Conditions
12:51 AM 55.9 °F 10.9 °F 17% 29.85 in 10.0 mi ESE 5.8 mph - N/A   Clear
1:51 AM 57.9 °F 12.0 °F 16% 29.83 in 10.0 mi East 4.6 mph - N/A   Clear
2:51 AM 50.0 °F 12.0 °F 22% 29.85 in 10.0 mi Calm Calm - N/A   Clear
3:51 AM 55.9 °F 14.0 °F 19% 29.84 in 10.0 mi Calm Calm - N/A   Clear
4:51 AM 48.9 °F 15.1 °F 26% 29.86 in 10.0 mi East 4.6 mph - N/A   Clear
5:51 AM 50.0 °F 15.1 °F 25% 29.87 in 10.0 mi Calm Calm - N/A   Clear
6:51 AM 51.1 °F 14.0 °F 23% 29.88 in 10.0 mi SW 5.8 mph - N/A   Partly Cloudy
7:51 AM 53.1 °F 15.1 °F 22% 29.90 in 10.0 mi ENE 8.1 mph - N/A   Partly Cloudy
8:51 AM 61.0 °F 19.9 °F 21% 29.91 in 10.0 mi NNW 5.8 mph - N/A   Partly Cloudy
9:51 AM 64.0 °F 17.1 °F 16% 29.92 in 10.0 mi Calm Calm - N/A   Partly Cloudy
10:51 AM 71.1 °F 18.0 °F 13% 29.91 in 10.0 mi NNE 3.5 mph - N/A   Partly Cloudy
11:51 AM 75.9 °F 14.0 °F 10% 29.88 in 10.0 mi Calm Calm - N/A   Partly Cloudy
12:51 PM 81.0 °F 15.1 °F 8% 29.86 in 10.0 mi Calm Calm - N/A   Partly Cloudy
1:51 PM 82.0 °F 14.0 °F 8% 29.82 in 10.0 mi Variable 3.5 mph - N/A   Partly Cloudy
2:51 PM 84.9 °F 15.1 °F 7% 29.79 in 10.0 mi WSW 11.5 mph - N/A   Partly Cloudy
3:51 PM 84.9 °F 15.1 °F 7% 29.74 in 10.0 mi Variable 5.8 mph - N/A   Partly Cloudy
4:51 PM 84.9 °F 15.1 °F 7% 29.74 in 10.0 mi West 15.0 mph 20.7 mph N/A   Partly Cloudy
5:51 PM 84.0 °F 15.1 °F 8% 29.73 in 10.0 mi West 12.7 mph 18.4 mph N/A   Partly Cloudy
6:51 PM 82.0 °F 15.1 °F 8% 29.73 in 10.0 mi WSW 12.7 mph - N/A   Partly Cloudy
7:51 PM 79.0 °F 15.1 °F 9% 29.76 in 10.0 mi WSW 9.2 mph - N/A   Partly Cloudy
8:51 PM 75.9 °F 15.1 °F 10% 29.76 in 10.0 mi West 3.5 mph - N/A   Partly Cloudy
9:51 PM 73.9 °F 21.0 °F 14% 29.79 in 10.0 mi WSW 11.5 mph - N/A   Partly Cloudy
10:51 PM 71.1 °F 33.1 °F 25% 29.81 in 10.0 mi South 16.1 mph - N/A   Partly Cloudy
11:51 PM 69.1 °F 34.0 °F 27% 29.78 in 10.0 mi SSW 13.8 mph - N/A   Partly Cloudy